Location: Newark
(35.5300°N, 14.3000°E)
Time: 11:09:21
(UTC+00:00)

S-56A Canister/Altair - Pass Details

Date: 19 November 2019
Orbit: 633 x 2499 km, 38.9° (Epoch: 06 December)

Event Time Altitude Azimuth Distance (km) Brightness Sun altitude
Rises 17:26:00 0° 264° (W) 4,994 13.4 -18.7°
Reaches altitude 10° 17:29:49 10° 267° (W) 3,700 12.2 -19.4°
Maximum altitude 17:38:44 71° 351° (N) 1,153 8.3 -21.2°
Enters shadow 17:41:14 39° 63° (ENE) 1,428 8.4 -21.7°
